Hourly Data Report for July 11, 2021

BORDEN AWOS
ONTARIO
Current Station Operator: DND

44°16'20.000" N
79°54'42.000" W
222.50 m
611B002
71534
YBN

Download Data

Hourly Data (July 2021)
Hourly Data Report for July 11, 2021
TIME
LST
Temp Definition
°C
Dew Point Definition
°C
Rel Hum Definition
%
Precip. Amount Definition
mm

Wind Dir Definition
10's deg

Wind Spd Definition
km/h
Visibility Definition
km
Stn Press Definition
kPa
Hmdx Definition


Wind Chill Definition


Weather Definition


00:00 12.8 12.0 95   20 4 14.5 99.17     LegendNANA
01:00 11.8 11.8 100     0 14.5 99.16     LegendNANA
02:00 11.7 11.5 99     0 14.5 99.18     LegendNANA
03:00 11.3 11.3 100     0 14.5 99.15     LegendNANA
04:00 11.1 10.9 99     0 14.5 99.13     LegendNANA
05:00 11.2 11.0 99   18 4 14.5 99.13     LegendNANA
06:00 12.7 12.5 99   20 4 14.5 99.16     LegendNANA
07:00 14.2 13.6 96   33 6 14.5 99.16     LegendNANA
08:00 16.3 13.8 85     0 14.5 99.17     LegendNANA
09:00 18.1 14.5 80     0 14.5 99.15     LegendNANA
10:00 19.4 15.0 76     0 14.5 99.14     LegendNANA
11:00 20.8 15.7 73   1 6 14.5 99.17 25   LegendNANA
12:00 21.9 14.9 65   10 9 14.5 99.18 26   LegendNANA
13:00 23.0 15.8 64   11 15 14.5 99.15 27   LegendNANA
14:00 22.5 16.1 67   13 13 14.5 99.15 27   LegendNANA
15:00 23.0 16.5 67   13 7 14.5 99.12 28   LegendNANA
16:00 23.0 16.3 66   8 9 14.5 99.11 28   LegendNANA
17:00 22.7 16.3 67   10 13 14.5 99.09 28   LegendNANA
18:00 22.3 16.2 68   6 9 14.5 99.09 27   LegendNANA
19:00 21.2 16.3 74   5 6 14.5 99.08 26   LegendNANA
20:00 18.9 17.2 90   2 6 14.5 99.09     LegendNANA
21:00 17.0 16.2 95     0 14.5 99.15     LegendNANA
22:00 16.1 15.3 95     0 14.5 99.19     LegendNANA
23:00 15.6 15.0 96     0 14.5 99.18     LegendNANA

Notes on Data Quality.

Legend

  • E = Estimated
  • M = Missing
  • NA = Not Available*
  • [empty] = Indicates an unobserved value
Date modified: